Regional Weather Roundup
Issued by NWS

Home | Current Version | Previous Version | Graphics & Text | Print | Product List | Glossary On
Versions: 1 2 3 4 5 6 7 8 9 10 11 12 13 14 15 16 17 18 19 20 21 22 23 24 25 26 27 28 29 30 31 32 33 34 35 36 37 38 39 40 41 42 43 44 45 46 47 48 49 50
000
ASUS43 KLMK 031202
RWRKY
KENTUCKY REGIONAL WEATHER ROUNDUP
NATIONAL WEATHER SERVICE LOUISVILLE KY
800 AM EDT FRI JUL 03 2015

NOTE "FAIR" INDICATES FEW OR NO CLOUDS BELOW 12,000 FEET
WITH NO SIGNIFICANT WEATHER AND/OR OBSTRUCTIONS TO VISIBILITY.

KYZ001>023-026-027-061>063-070>075-031300-
WESTERN AND SOUTH CENTRAL KENTUCKY

CITY           SKY/WX    TMP DP  RH WIND       PRES   REMARKS
PADUCAH        CLOUDY    72  69  90 CALM      29.86R FOG
HENDERSON      CLOUDY    72  68  88 NW6       29.84S
OWENSBORO      FOG       71  71 100 CALM      29.85R VSB 1/2
HOPKINSVILLE   CLOUDY    72  71  96 SW8       29.85F
BOWLING GREEN  RAIN      73  69  87 W5        29.85S FOG
GLASGOW        NOT AVBL
$$

KYZ024-025-028>034-038-045-046-053-031300-
NORTH CENTRAL KENTUCKY

CITY           SKY/WX    TMP DP  RH WIND       PRES   REMARKS
LOUISVILLE/SDF CLOUDY    72  69  90 NE7       29.85S
LOUISVILLE/LOU CLOUDY    72  69  90 CALM      29.86S
FORT KNOX      CLOUDY    72  70  94 NE2       29.85R FOG
$$

KYZ035>037-039>044-047>052-055>060-089>105-031300-
NORTHEAST KENTUCKY

CITY           SKY/WX    TMP DP  RH WIND       PRES   REMARKS
LEXINGTON      CLOUDY    70  68  93 E3        29.87F
COVINGTON      CLOUDY    67  64  90 E9        29.90S FOG
FRANKFORT      CLOUDY    70  67  90 NE3       29.86S
$$

KYZ054-064>069-076>088-106>120-031300-
SOUTHEAST KENTUCKY

CITY           SKY/WX    TMP DP  RH WIND       PRES   REMARKS
JACKSON        CLOUDY    68  67  96 VRB3      29.90F FOG
LONDON         LGT RAIN  70  65  84 CALM      29.89F
SOMERSET       NOT AVBL
MIDDLESBORO    NOT AVBL
MONTICELLO     CLOUDY    71  71 100 CALM      29.90S
$$



USA.gov is the U.S. government's official web portal to all federal, state and local government web resources and services.